Location: Austin
(30.3000°N, 97.7500°W)
Time: 12:21:59
(UTC-05:00)

SL-19 R/B - Pass Details

Date: 26 May 2023
Orbit: 874 x 1209 km, 100.5° (Epoch: 30 May)

Event Time Altitude Azimuth Distance (km) Brightness Sun altitude
Rises 22:11:58 0° 21° (NNE) 3,570 7.7 -20.2°
Reaches altitude 10° 22:14:30 10° 26° (NNE) 2,591 6.9 -20.6°
Maximum altitude 22:20:03 52° 102° (ESE) 1,084 4.4 -21.5°
Enters shadow 22:21:16 44° 142° (SE) 1,195 4.5 -21.6°
